Wind_Speed
22 20 20 18 16 15 15 15 14 13 12 11 10 10 10 11 10 10 9 6 5 7 9 9 8 8 9 9 12 15 15 15 14 12 11 12 12 13 14 15 17 17 20
19 19 19 17 16 15 15 15 14 14 12 10 9 9 9 8 7 7 7 5 4 8 9 9 8 9 10 12 12 12 11 12 12 11 11 11 12 13 14 14 16 17 19
19 19 18 17 15 15 14 14 13 12 13 10 9 8 7 6 5 6 7 6 3 11 10 10 9 8 9 10 11 12 10 9 8 9 10 10 11 12 13 14 15 16 18
18 18 16 16 15 15 14 13 12 11 11 9 8 6 5 5 4 5 9 12 11 13 11 10 8 9 10 10 10 11 11 8 9 9 8 10 10 10 11 12 14 15 17
19 17 15 15 15 14 13 12 11 10 9 8 7 5 3 3 3 5 8 10 12 11 9 9 9 9 9 10 9 10 11 9 9 10 8 8 9 8 9 11 13 14 16
19 17 15 16 16 14 12 12 10 10 8 7 6 5 3 1 2 3 5 5 6 6 5 6 9 9 10 10 10 10 10 8 11 5 9 9 9 8 9 11 12 13 15
18 16 15 15 16 14 12 12 10 8 7 6 4 3 3 0 1 1 2 2 3 5 5 5 8 8 9 10 12 11 9 8 4 7 10 9 9 9 10 11 11 12 13
15 15 14 14 14 13 12 10 9 8 5 5 4 2 3 3 3 3 2 2 1 3 5 6 6 8 9 10 11 10 8 6 6 10 9 9 9 9 9 10 11 11 13
16 15 14 13 14 14 12 9 8 6 7 3 3 3 5 5 9 8 6 4 3 2 4 5 5 5 6 7 9 10 8 9 11 10 9 10 10 11 11 10 11 11 12
16 16 14 13 12 12 11 10 7 5 6 5 2 5 5 4 5 10 11 8 6 5 4 4 5 5 5 5 6 7 9 11 11 10 11 12 12 11 12 12 12 11 12
18 17 16 13 12 11 10 9 7 6 5 5 3 4 5 6 5 5 13 12 9 6 5 4 5 5 6 5 6 7 8 9 10 12 12 14 14 15 12 13 12 12 13
17 16 16 15 13 11 10 9 8 6 5 5 4 3 4 5 6 3 10 13 11 8 7 6 6 7 6 4 6 8 9 10 11 12 16 14 14 16 14 14 13 14 13
15 15 15 16 15 12 10 9 8 7 5 5 4 3 3 4 2 1 8 12 10 9 9 8 9 9 8 7 6 9 9 9 11 11 12 16 17 19 17 19 15 14 12
17 15 15 15 15 14 12 10 10 9 8 6 5 4 3 3 1 3 7 9 8 8 8 9 8 9 9 9 8 10 8 8 10 12 16 14 18 20 22 23 21 17 14
17 18 17 15 14 13 13 12 11 10 8 7 6 5 5 2 0 3 4 6 6 6 8 9 9 9 10 9 10 13 13 10 9 10 13 17 16 17 20 18 22 18 16
14 16 17 16 15 15 13 13 11 11 10 9 7 7 8 6 5 3 5 5 5 5 6 8 10 9 8 8 8 7 11 11 11 8 13 13 16 13 14 14 23 20 19
10 14 14 15 14 14 14 15 14 12 12 11 10 10 9 10 8 7 7 6 5 7 7 6 7 7 7 7 6 5 7 7 12 9 11 12 12 14 11 15 26 22 19
13 11 13 13 12 12 14 15 15 14 12 11 12 11 12 11 9 7 6 8 6 5 5 5 5 6 7 6 6 7 6 8 9 13 12 11 11 12 11 13 29 25 20
8 13 13 12 11 10 11 13 14 14 13 14 14 14 13 11 9 10 9 8 9 6 8 6 6 7 7 8 6 7 8 9 12 12 9 8 12 11 12 13 26 25 19
11 12 14 14 14 11 12 12 12 13 15 17 13 14 15 14 15 12 12 9 7 7 8 10 8 7 9 10 9 8 11 11 9 12 10 13 11 11 11 18 27 23 21
13 15 14 14 16 16 14 13 12 12 11 14 18 17 19 19 21 18 16 13 11 10 7 10 9 10 9 9 9 8 13 11 9 9 8 8 10 9 11 21 26 22 20
5 17 18 16 17 17 17 15 17 15 17 19 17 22 26 25 24 21 17 15 14 13 10 10 10 10 11 8 11 13 11 9 9 12 12 7 12 12 15 20 21 20 19
6 4 15 18 19 19 18 18 21 21 20 24 19 24 30 28 27 28 21 18 17 15 14 14 12 12 12 12 10 12 9 9 10 11 10 9 12 15 19 20 19 18 19
7 7 10 14 19 20 25 24 26 23 19 20 21 26 26 15 19 19 27 23 18 16 17 10 13 11 14 14 14 13 10 10 12 15 11 10 9 14 18 21 23 20 20
8 9 13 13 16 18 21 26 25 26 21 22 22 25 19 17 17 15 25 23 21 18 15 13 12 14 15 17 16 14 12 10 10 15 11 9 8 9 13 19 21 24 22
10 8 11 16 17 20 21 23 26 27 28 21 20 20 21 21 20 22 23 25 23 18 15 15 15 18 17 18 19 17 13 11 11 16 13 10 9 10 11 14 17 21 24
Wind_Direction
155 151 146 146 144 142 137 133 131 123 119 115 117 113 110 103 90 76 78 106 138 146 138 138 124 117 109 116 122 130 123 126 129 130 111 105 102 108 111 112 114 115 119
159 154 149 150 148 146 140 135 132 128 122 118 114 113 109 104 86 59 50 64 123 158 143 131 125 114 116 121 126 128 130 135 137 128 114 108 111 113 119 117 116 115 122
167 160 156 155 153 149 143 135 132 131 125 120 116 114 113 108 88 48 35 20 149 155 140 128 125 120 120 128 129 129 127 124 122 122 119 111 109 115 123 121 119 120 124
169 165 161 158 153 151 144 138 134 132 125 121 118 112 108 95 73 50 42 37 122 144 135 130 128 130 135 136 138 134 131 140 134 124 118 115 108 115 123 127 127 124 126
168 168 164 160 156 154 148 141 138 136 131 127 128 123 107 95 79 50 52 60 96 125 131 135 138 143 142 145 151 149 151 146 136 129 133 128 118 118 128 130 134 133 131
165 172 169 164 161 158 154 149 148 150 144 139 145 147 139 116 70 62 58 66 83 113 133 147 150 149 148 148 152 159 161 160 143 131 149 149 140 136 138 138 138 140 135
166 170 171 168 163 160 159 157 157 160 151 146 159 171 139 153 319 29 60 80 77 109 98 124 148 153 151 154 152 156 161 167 176 153 153 155 153 148 147 144 141 140 139
171 173 173 172 167 168 162 161 163 164 159 161 176 172 194 247 240 251 241 236 109 105 122 116 137 152 158 158 161 163 179 205 197 168 157 159 162 159 157 150 149 146 141
172 177 178 177 175 174 166 166 173 166 172 181 193 209 242 265 226 225 225 231 207 177 141 130 134 150 154 157 172 176 179 165 159 173 176 168 172 169 163 159 155 155 152
177 177 182 182 185 183 175 171 177 179 189 214 203 255 1 293 238 226 223 220 213 204 194 166 154 160 170 176 186 191 197 187 186 186 188 177 178 179 174 163 164 162 158
182 182 182 185 188 189 186 177 182 195 199 216 230 269 316 331 327 255 229 214 214 215 213 202 185 170 175 181 192 193 209 203 202 203 193 190 187 190 182 172 177 166 164
190 186 184 186 187 191 194 189 190 197 210 227 253 276 305 323 326 288 206 208 213 228 236 231 215 196 184 186 212 189 195 202 208 213 208 206 201 200 184 184 179 172 168
200 194 194 190 191 194 195 199 194 203 225 237 261 273 304 320 323 227 193 200 214 233 248 249 225 223 204 207 209 203 202 200 209 212 206 209 211 205 194 187 180 177 178
203 201 200 200 198 198 197 201 204 208 222 232 254 260 265 316 355 131 172 190 216 238 252 255 256 243 227 217 213 202 187 197 206 208 211 211 230 225 215 200 187 184 184
202 202 202 204 203 206 204 209 213 217 224 237 246 236 235 246 99 134 156 188 215 238 239 239 236 236 239 221 203 211 221 213 215 218 215 224 230 235 234 209 195 191 187
198 194 202 204 205 207 211 213 219 225 228 236 241 242 247 249 237 209 186 183 215 238 253 249 240 228 228 214 208 205 220 224 219 226 217 223 227 235 236 202 198 195 193
185 185 193 199 205 212 211 216 217 226 232 237 243 245 246 242 250 237 240 232 233 235 240 268 236 235 225 225 228 222 223 221 218 220 224 222 224 226 228 206 186 197 193
197 187 191 195 198 204 210 214 221 224 238 239 244 246 243 237 239 241 229 228 221 259 247 269 249 230 224 238 234 214 219 209 225 226 231 234 217 210 218 208 197 199 194
193 202 198 201 206 204 199 204 213 215 217 228 237 237 237 234 243 236 245 236 233 249 254 255 255 233 232 226 222 222 237 248 232 233 230 254 221 221 214 207 193 196 198
224 218 207 206 200 211 214 211 215 214 214 221 223 224 227 240 238 232 243 238 221 246 268 264 241 249 230 228 219 231 257 271 238 226 235 233 226 224 218 196 188 195 201
238 228 222 224 224 218 221 224 233 237 234 230 231 227 224 227 238 230 238 243 238 234 256 279 261 243 238 231 227 241 267 257 239 221 214 223 216 210 193 189 189 198 201
238 227 227 227 234 241 233 234 246 249 240 235 225 225 235 232 227 225 239 240 253 243 246 265 254 253 253 243 231 245 274 241 223 224 222 236 216 205 184 180 191 201 202
295 269 233 238 230 234 238 236 239 248 253 258 244 240 254 233 235 229 231 240 252 251 254 255 249 254 258 250 230 239 249 232 232 224 228 218 214 208 205 197 200 205 207
275 271 245 232 237 241 238 235 247 252 252 256 264 273 252 245 242 233 232 239 245 250 262 270 260 261 263 255 244 233 238 251 238 214 219 213 215 213 214 214 216 215 212
261 262 265 255 244 243 241 239 245 255 260 250 243 259 260 262 270 260 238 245 239 242 260 266 261 271 268 257 241 236 229 228 206 197 210 207 206 214 215 212 213 218 218
263 271 281 273 264 250 250 249 246 254 256 252 252 256 266 263 259 274 231 237 237 244 261 269 269 266 264 261 235 228 222 219 214 206 205 204 201 206 204 205 211 219 222
Height
3181 3183 3185 3188 3190 3192 3193 3195 3197 3197 3198 3200 3201 3202 3203 3204 3204 3205 3205 3205 3205 3206 3206 3207 3207 3207 3207 3208 3209 3210 3210 3211 3212 3212 3213 3213 3214 3214 3216 3217 3218 3219 3220
3183 3185 3187 3189 3191 3194 3195 3197 3198 3198 3200 3201 3202 3203 3204 3204 3205 3206 3206 3205 3206 3206 3208 3208 3209 3209 3208 3209 3210 3212 3213 3214 3214 3214 3214 3215 3215 3216 3218 3219 3220 3221 3223
3185 3186 3188 3190 3193 3195 3196 3197 3199 3200 3201 3203 3204 3204 3205 3205 3206 3206 3206 3205 3204 3206 3207 3208 3209 3210 3210 3211 3212 3213 3214 3215 3216 3216 3217 3217 3218 3219 3220 3221 3222 3223 3224
3185 3188 3189 3191 3194 3195 3197 3198 3200 3201 3202 3204 3204 3205 3205 3206 3206 3207 3207 3205 3203 3206 3208 3209 3210 3211 3212 3212 3213 3214 3215 3215 3217 3218 3219 3219 3219 3220 3221 3223 3224 3225 3227
3186 3189 3190 3192 3194 3196 3198 3199 3200 3202 3203 3204 3205 3206 3207 3208 3208 3208 3208 3208 3207 3208 3209 3210 3211 3211 3212 3213 3213 3215 3216 3218 3219 3219 3220 3220 3221 3222 3224 3225 3226 3227 3229
3186 3189 3191 3193 3195 3197 3199 3200 3201 3203 3204 3205 3206 3207 3208 3208 3209 3209 3209 3209 3210 3210 3210 3211 3211 3212 3212 3213 3214 3216 3217 3218 3220 3220 3221 3222 3223 3224 3225 3226 3228 3230 3231
3186 3188 3191 3194 3196 3198 3200 3201 3202 3204 3205 3207 3207 3208 3209 3209 3210 3210 3210 3210 3210 3210 3211 3212 3213 3212 3213 3214 3214 3216 3218 3219 3220 3221 3221 3223 3224 3224 3226 3228 3230 3231 3233
3187 3189 3191 3194 3196 3198 3200 3202 3204 3205 3206 3207 3207 3208 3209 3209 3210 3210 3211 3211 3211 3211 3212 3213 3213 3213 3214 3214 3215 3217 3218 3219 3220 3221 3222 3223 3225 3226 3227 3228 3231 3232 3234
3186 3188 3191 3194 3196 3198 3200 3202 3204 3205 3206 3207 3208 3209 3208 3208 3209 3210 3210 3211 3212 3212 3212 3213 3213 3214 3215 3215 3216 3217 3217 3218 3219 3221 3223 3224 3225 3226 3227 3230 3232 3233 3235
3186 3188 3191 3194 3196 3199 3200 3202 3204 3205 3206 3206 3207 3208 3207 3208 3208 3208 3208 3210 3211 3212 3213 3213 3213 3214 3214 3215 3215 3217 3218 3218 3220 3221 3223 3223 3225 3226 3228 3229 3232 3234 3236
3185 3188 3190 3194 3196 3199 3201 3202 3204 3205 3206 3207 3207 3207 3207 3206 3205 3207 3207 3208 3210 3212 3212 3213 3213 3214 3214 3215 3215 3216 3217 3218 3219 3220 3222 3223 3224 3226 3228 3230 3232 3234 3236
3184 3186 3189 3192 3195 3198 3200 3201 3203 3205 3205 3206 3207 3207 3206 3206 3205 3205 3205 3207 3209 3211 3212 3213 3213 3213 3214 3214 3215 3215 3215 3216 3218 3219 3221 3222 3224 3225 3227 3228 3232 3234 3236
3185 3186 3188 3191 3194 3196 3199 3201 3202 3204 3205 3205 3206 3207 3207 3206 3206 3204 3204 3206 3208 3210 3210 3211 3212 3213 3213 3213 3213 3214 3215 3215 3216 3217 3219 3221 3223 3222 3225 3225 3228 3233 3237
3182 3185 3188 3190 3192 3195 3197 3200 3201 3202 3204 3205 3206 3206 3206 3206 3205 3206 3205 3207 3208 3209 3209 3209 3210 3210 3211 3212 3212 3213 3213 3214 3215 3217 3218 3220 3221 3222 3223 3222 3229 3231 3235
3181 3184 3186 3188 3191 3194 3195 3198 3200 3201 3202 3203 3205 3206 3206 3206 3206 3206 3206 3206 3207 3208 3208 3208 3208 3208 3208 3210 3210 3211 3212 3213 3214 3215 3217 3218 3220 3221 3222 3224 3228 3232 3234
3180 3183 3185 3187 3190 3192 3194 3195 3198 3200 3200 3202 3203 3204 3206 3206 3206 3206 3206 3206 3206 3207 3207 3206 3206 3207 3207 3207 3208 3208 3210 3211 3213 3214 3215 3216 3218 3219 3221 3222 3227 3231 3234
3181 3181 3184 3186 3188 3190 3191 3193 3195 3197 3199 3200 3202 3202 3203 3205 3205 3205 3205 3205 3205 3205 3205 3205 3205 3205 3205 3206 3206 3207 3209 3210 3212 3212 3213 3214 3215 3217 3219 3221 3225 3230 3233
3179 3182 3183 3185 3187 3188 3189 3191 3193 3194 3197 3198 3199 3201 3201 3202 3203 3204 3204 3203 3203 3203 3204 3204 3204 3204 3205 3205 3206 3206 3207 3208 3209 3211 3212 3213 3214 3216 3217 3220 3224 3228 3231
3180 3181 3181 3184 3186 3187 3187 3188 3190 3191 3193 3195 3197 3198 3200 3201 3202 3204 3203 3202 3202 3202 3203 3203 3203 3203 3204 3204 3205 3205 3206 3206 3207 3209 3210 3210 3212 3214 3215 3216 3221 3226 3229
3178 3179 3180 3182 3183 3185 3186 3186 3187 3188 3190 3191 3193 3195 3197 3198 3200 3201 3201 3200 3200 3200 3201 3201 3201 3202 3202 3202 3203 3204 3204 3204 3205 3207 3208 3210 3211 3212 3213 3215 3220 3224 3228
3175 3177 3178 3179 3181 3181 3184 3185 3186 3187 3188 3189 3190 3193 3193 3194 3195 3197 3198 3198 3198 3197 3198 3198 3199 3199 3200 3200 3201 3201 3202 3203 3203 3205 3208 3209 3210 3211 3212 3214 3219 3224 3226
3171 3173 3174 3176 3177 3180 3181 3183 3183 3183 3184 3184 3185 3187 3189 3190 3190 3193 3194 3195 3195 3194 3195 3197 3197 3197 3197 3198 3199 3200 3199 3202 3202 3204 3206 3207 3209 3211 3213 3215 3219 3222 3224
3168 3169 3170 3172 3173 3175 3178 3179 3179 3179 3180 3179 3181 3181 3184 3184 3185 3187 3190 3191 3192 3192 3192 3194 3194 3194 3195 3196 3196 3197 3198 3199 3200 3202 3204 3206 3207 3210 3213 3215 3218 3220 3222
3164 3165 3167 3167 3168 3171 3172 3173 3175 3175 3177 3177 3177 3173 3165 3180 3180 3182 3185 3187 3188 3189 3189 3189 3191 3192 3192 3193 3194 3195 3196 3197 3198 3201 3203 3205 3206 3208 3210 3213 3216 3219 3221
3161 3162 3163 3163 3164 3165 3166 3168 3170 3170 3172 3172 3172 3172 3172 3175 3176 3178 3179 3184 3184 3185 3186 3187 3187 3189 3189 3190 3191 3192 3193 3195 3196 3199 3202 3204 3205 3206 3208 3209 3213 3216 3219
3159 3159 3159 3158 3159 3160 3161 3162 3163 3165 3165 3166 3167 3167 3169 3170 3172 3171 3173 3179 3181 3182 3183 3184 3184 3184 3184 3185 3187 3189 3192 3193 3195 3197 3200 3202 3203 3205 3206 3207 3210 3213 3216